Location: Poughquag
(41.6090°N, 73.6820°W)
Time: 16:04:41
(UTC-04:00)

OTV 4 - Visible Passes

Search period start: 23 March 2017 00:00
Search period end: 02 April 2017 00:00
Orbit: 322 x 354 km, 38.0° (Epoch: 14 January)

Date Brightness Start Highest point End Pass type
(mag) Time Alt. Az. Time Alt. Az. Time Alt. Az.
27 Mar 2.9 05:39:58 10° S 05:41:18 13° SSE 05:42:39 10° SE visible
28 Mar 2.1 05:59:51 10° SW 06:02:08 22° SSE 06:04:24 10° ESE visible
29 Mar 3.1 04:48:25 12° SE 04:48:25 12° SE 04:49:01 10° ESE visible
30 Mar 1.9 05:08:23 24° SSE 05:08:23 24° SSE 05:10:39 10° ESE visible
31 Mar 1.3 05:28:18 26° SW 05:29:13 34° S 05:31:49 10° ESE visible
01 Apr 1.1 05:48:14 16° WSW 05:50:12 38° S 05:52:50 10° ESE visible
